Location: Newark
(41.8083°N, 72.2500°W)
Time: 12:14:35
(UTC+00:00)

Explorer 11/Cluster Stage 4 - Pass Details

Date: 06 December 2021
Orbit: 467 x 1255 km, 28.8° (Epoch: 24 January)

Event Time Altitude Azimuth Distance (km) Brightness Sun altitude
Rises 09:51:19 0° 256° (WSW) 3,753 - -23.6°
Reaches altitude 10° 09:54:35 10° 241° (WSW) 2,925 - -23.0°
Exits shadow 09:56:55 17° 224° (SW) 2,509 8.8 -22.6°
Maximum altitude 09:59:51 21° 195° (SSW) 2,342 8.9 -22.1°
Drops below altitude 10° 10:05:33 10° 150° (SSE) 3,188 10.2 -21.0°
Sets 10:09:18 0° 136° (SE) 4,184 11.2 -20.4°
